Regional Weather Roundup
Issued by NWS

Home | Current Version | Previous Version | Text Only | Print | Product List | Glossary On
Versions: 1 2 3 4 5 6 7 8 9 10 11 12 13 14 15 16 17 18 19 20 21 22 23 24 25 26 27 28 29 30 31 32 33 34 35 36 37 38 39 40 41 42 43 44 45 46 47 48 49 50
000
ASUS44 KOUN 300710
RWROK

WEATHER ROUNDUP FOR OKLAHOMA
NATIONAL WEATHER SERVICE NORMAN OK
200 AM CDT SUN APR 30 2017

NOTE: "FAIR" INDICATES FEW OR NO CLOUDS BELOW 12,000 FEET WITH NO
      SIGNIFICANT WEATHER AND/OR OBSTRUCTIONS TO VISIBILITY.

OKZ001>007-009>012-014-015-017-300800-
NORTHWEST OKLAHOMA AND THE PANHANDLE

CITY           SKY/WX    TMP DP  RH WIND       PRES   REMARKS
GAGE           LGT SNOW  34  32  92 W17       29.70R FOG     WCI  23
GUYMON         SNOW      33  33 100 NW26G37   29.80F VSB 1/2 WCI  20
ENID/WOODRING  RAIN      46  46 100 N8        29.65R
$$

OKZ016-021>023-033>039-044-045-300800-
SOUTHWEST OKLAHOMA

CITY           SKY/WX    TMP DP  RH WIND       PRES   REMARKS
LAWTON/REGL    CLOUDY    48  46  93 W10G22    29.72R
LAWTON/FT SILL CLOUDY    47  46  96 W14G21    29.71R
FREDERICK      PTCLDY    43  40  89 W18       29.73S WCI  35
CLINTON          N/A    N/A N/A N/A MISG      29.69S
HOBART         CLOUDY    44  42  93 W13       29.69F
ALTUS AFB      CLOUDY    43  39  84 W18       29.73F
$$

OKZ018>020-024>031-300800-
CENTRAL OKLAHOMA

CITY           SKY/WX    TMP DP  RH WIND       PRES   REMARKS
OKLAHOMA CITY  CLOUDY    47  46  97 NW7       29.66R
OKC/WILEY POST LGT RAIN  47  46  97 N8        29.64R
OKC/TINKER AFB CLOUDY    47  46  95 W7        29.67R
GUTHRIE        CLOUDY    48  47  96 VRB5      29.61F
$$

OKZ008-013-054>072-300800-
NORTHEAST OKLAHOMA

CITY           SKY/WX    TMP DP  RH WIND       PRES   REMARKS
TULSA          CLOUDY    56  55  97 SW12      29.59R
TULSA/JONES    CLOUDY    55  53  93 SW9G17    29.64R FOG
PONCA CITY     LGT RAIN  49  47  93 VRB3      29.64  FOG
BARTLESVILLE   CLOUDY    59  57  93 NE5       29.59
MUSKOGEE       CLOUDY    56  55  97 SW14G22   29.65R
$$

OKZ032-040>043-046>053-073>077-300800-
SOUTH CENTRAL/SOUTHEAST OKLAHOMA

CITY           SKY/WX    TMP DP  RH WIND       PRES   REMARKS
ARDMORE/DWNTWN CLOUDY    50  45  81 W7        29.70F
MCALESTER      CLOUDY    53  51  93 W8        29.67F
$$





USA.gov is the U.S. government's official web portal to all federal, state and local government web resources and services.